Regional Weather Roundup
Issued by NWS

Home | Current Version | Previous Version | Graphics & Text | Print | Product List | Glossary Off
Versions: 1 2 3 4 5 6 7 8 9 10 11 12 13 14 15 16 17 18 19 20 21 22 23 24 25 26 27

000
ASUS43 KDMX 241407
RWRIA

WEATHER ROUNDUP FOR IOWA
NATIONAL WEATHER SERVICE DES MOINES IA
900 AM CDT FRI OCT 24 2014

NOTE: "FAIR" INDICATES FEW OR NO CLOUDS BELOW 12,000 FEET WITH NO
SIGNIFICANT WEATHER AND/OR OBSTRUCTIONS TO VISIBILITY.

* - THESE STATIONS ARE NOT NWS STATIONS...THUS NOT UNDER NWS
QUALITY CONTROL.  THEY ALSO DO NOT REPORT WEATHER SUCH
AS PRECIPITATION OR FOG.

IAZ001>003-012>014-020>022-031>034-043>046-241500-
   NORTHWEST IOWA

CITY           SKY/WX    TMP DP  RH WIND       PRES   REMARKS
CARROLL *      CLOUDY    61  59  94 SW15G23   29.91R FOG
CHEROKEE *     PTSUNNY   57  57 100 S8        29.88S FOG
DENISON *      CLOUDY    59  59 100 SW10G16   29.90R FOG
LE MARS *      SUNNY     54  54 100 S7        29.89R FOG
ORANGE CITY *  SUNNY     54  52  94 SW6       29.88R FOG
SHELDON *      SUNNY     54  54 100 SW9       29.86R FOG
SIOUX CITY     CLOUDY    52  50  93 SE3       29.90R
SPENCER        PTSUNNY   56  54  93 SW12      29.87S
STORM LAKE *   MOSUNNY   57  55  94 SW13      29.90R FOG
$$

IAZ055>058-069>071-079>083-090>094-241500-
   SOUTHWEST IOWA

CITY           SKY/WX    TMP DP  RH WIND       PRES   REMARKS
ATLANTIC *     CLOUDY    61  59  94 S13       29.94S FOG
AUDUBON *      CLOUDY    59  55  88 S13       29.94S FOG
CLARINDA *     CLOUDY    59  59 100 S9        30.00S FOG
COUNCIL BLFS * CLOUDY    59  59 100 S12       29.92F FOG
CRESTON *      FOG       59  59 100 SW15      29.99R VSB 1/4
HARLAN  *      FOG       59  59 100 S12G20    29.96S VSB 1/2
LAMONI         FOG       57  57 100 S8        30.01F VSB 1/4
RED OAK *      CLOUDY    61  61 100 S12       29.96F FOG
SHENANDOAH *   SUNNY     61  59  94 S7G14     29.98S FOG
$$

IAZ047>049-059>061-072>074-084-241500-
   CENTRAL IOWA

CITY           SKY/WX    TMP DP  RH WIND       PRES   REMARKS
AMES           FOG       57  56  96 S10       29.96R VSB 1/2
ANKENY *       FOG       57  57 100 S12       29.97S VSB 3/4
CHARITON *     FOG       57  57 100 S14       30.01S VSB 0
DES MOINES     FOG       59  58  96 S10       29.98S VSB 1/8
GRINNELL*      RAIN      55  55 100 SE10      30.00F VSB<1/4
KNOXVILLE *    FOG       59  57  94 S12       29.99S VSB 1/4
MARSHALLTOWN   FOG       53  53 100 S9        29.97S VSB 1/4
PELLA *        FOG       59  59 100 S8        30.02R VSB 1/4
PERRY *        CLOUDY    59  59 100 S12       29.94S FOG
$$

IAZ004>006-015-016-023>025-035-036-241500-
   NORTH CENTRAL IOWA

CITY           SKY/WX    TMP DP  RH WIND       PRES   REMARKS
ALGONA *       CLOUDY    54  54 100 S14       29.89S FOG
CLARION *      FOG       54  54 100 S14       29.92S VSB 0
ESTHERVILLE    MOSUNNY   50  49  96 S9        29.86S FOG
FORT DODGE *   CLOUDY    57  54  88 S13       29.91F VSB 3/4
MASON CITY     CLOUDY    49  49 100 S10       29.93F FOG
FOREST CITY *  PTSUNNY   52  52 100 S12       29.90F FOG
IOWA FALLS *   DRZL/FOG  52  52 100 S9        29.96S VSB 1/4
$$

IAZ007>011-017>019-026>030-037>042-050>054-066-241500-
   NORTHEAST IOWA

CITY           SKY/WX    TMP DP  RH WIND       PRES   REMARKS
CEDAR RAPIDS   FOG       47  47 100 S8        30.03S VSB 1/16
CHARLES CITY * FOG       48  48 100 SE8       29.97R VSB 3/4
CLINTON *      CLOUDY    52  48  87 SE5       30.09S
DECORAH *      FOG       52  52 100 S7        29.98S VSB 0
DUBUQUE        FOG       51  51 100 S9        30.03F VSB<1/4
MONTICELLO *   FOG       50  50 100 S9        30.04S VSB 0
OELWEIN *      FOG       50  50 100 SE13      30.00S VSB 0
WATERLOO       FOG       47  47 100 S7        29.98F VSB 1/4
$$

IAZ064-065-067-068-078-241500-
   EAST CENTRAL IOWA

CITY           SKY/WX    TMP DP  RH WIND       PRES   REMARKS
DAVENPORT      FOG       53  52  96 SE7       30.07R VSB 1/4
IOWA CITY      FOG       49  49 100 S6        30.07S VSB<1/4
MT. PLEASANT * LGT RAIN  52  52 100 S5        30.07S VSB<1/4
MUSCATINE *    FOG       52  50  93 S5        30.08R VSB 0
QUAD CITIES    FOG       54  53  97 S6        30.07R VSB 3/4
$$

IAZ062-063-075>077-085>089-095>099-241500-
   SOUTHEAST IOWA

CITY           SKY/WX    TMP DP  RH WIND       PRES   REMARKS
BURLINGTON     FOG       53  53 100 S7        30.08R VSB<1/4
FAIRFIELD *    CLOUDY    55  55 100 S12       30.05S
FORT MADISON * FOG       54  54 100 S3        30.08S VSB 0
KEOKUK *       FOG       55  55 100 S6        30.07S VSB 0
OSKALOOSA *    LGT RAIN  55  55 100 S9        30.03F VSB 1/4
CENTERVILLE *  FOG       55  55 100 S9        30.06R VSB 1/2
OTTUMWA        FOG       56  55  97 S7        30.03S VSB 1/4
WASHINGTON *   FOG       52  52 100 S8        30.06S VSB 0
$$

ABBREVIATIONS USED IN REMARKS
   TC - TEMPERATURES IN CELSIUS
  WCI - WIND CHILL INDEX
   HX - HEAT INDEX
  VSB - VISIBILITY
$$




USA.gov is the U.S. government's official web portal to all federal, state and local government web resources and services.